Weather History for Astoria, OR

Change the Weather History Date:

Monday, March 18, 2013

  Actual Average Record
Temperature  
Mean Temperature 43 °F 47 °F  
Max Temperature 50 °F 54 °F 74 °F (1928)
Min Temperature 36 °F 39 °F 27 °F (1971)
Degree Days  
Heating Degree Days 22 18  
Month to date heating degree days 356 346  
Since 1 July heating degree days 3736 3688  
Cooling Degree Days 0 0  
Month to date cooling degree days 0 0  
Year to date cooling degree days 0 0  
Moisture  
Dew Point 38 °F    
Average Humidity 77    
Maximum Humidity 92    
Minimum Humidity 61    
Precipitation  
Precipitation T in 0.24 in 2.24 in (1997)
Month to date precipitation 2.24 4.47  
Year to date precipitation 17.60 21.86  
Snow  
Snow 0.00 in - - ()
Month to date snowfall 0.0  
Snow Depth 0.00 in    
Sea Level Pressure  
Sea Level Pressure 30.24 in    
Wind  
Wind Speed 6 mph (WSW)    
Max Wind Speed 16 mph    
Max Gust Speed 23 mph    
Visibility 10 miles    
Events Rain    
T = Trace of Precipitation, MM = Missing Value Source: NWS Daily Summary

Daily Weather History Graph

Daily Weather History Graph

Search for Another Location

Airport:

Trip Planner

Search our weather history database for the weather conditions in past years. The results will help you decide how hot, cold, wet, or windy it might be!

Date:

Astronomy

Mar. 18, 2013 Rise Set
Actual Time 7:21 AM PDT 7:25 PM PDT
Civil Twilight 6:51 AM PDT 7:55 PM PDT
Nautical Twilight 6:16 AM PDT 8:30 PM PDT
Astronomical Twilight 5:41 AM PDT 9:06 PM PDT
Moon 11:07 AM PDT (3/18) 1:48 AM PDT (3/18)
Length of Visible Light 13h 03m
Length of Day
12h 04m
Waxing Crescent, 41% of the Moon is Illuminated
Mar 18
Waxing Crescent
Mar 19
First Quarter
Mar 27
Full
Apr 2
Last Quarter
Apr 10
New

Hourly Weather History & Observations

Time (PDT) Temp. Windchill Dew Point Humidity Pressure Visibility Wind Dir Wind Speed Gust Speed Precip Events Conditions
12:55 AM 41.0 °F - 37.0 °F 86% 30.25 in 10.0 mi Calm Calm - N/A   Overcast
1:04 AM 41.0 °F - 37.4 °F 87% 30.25 in 10.0 mi Calm Calm - 0.00 in Rain Light Rain
1:55 AM 41.0 °F 39.0 °F 37.9 °F 89% 30.24 in 10.0 mi SSE 3.5 mph - 0.00 in   Overcast
2:06 AM 41.0 °F - 37.4 °F 87% 30.24 in 10.0 mi Calm Calm - N/A   Overcast
2:51 AM 39.2 °F - 37.4 °F 93% 30.25 in 10.0 mi Calm Calm - N/A   Overcast
2:55 AM 39.9 °F - 37.9 °F 93% 30.25 in 10.0 mi Calm Calm - N/A   Mostly Cloudy
3:02 AM 39.2 °F 35.9 °F 37.4 °F 93% 30.24 in 10.0 mi SE 4.6 mph - N/A   Mostly Cloudy
3:36 AM 39.2 °F 37.0 °F 37.4 °F 93% 30.25 in 10.0 mi South 3.5 mph - N/A   Mostly Cloudy
3:55 AM 39.9 °F - 37.9 °F 93% 30.25 in 10.0 mi Calm Calm - 0.00 in   Overcast
4:55 AM 42.1 °F 38.4 °F 37.0 °F 82% 30.24 in 10.0 mi WSW 5.8 mph - 0.00 in Rain Light Rain
5:55 AM 42.1 °F 37.7 °F 37.0 °F 82% 30.24 in 10.0 mi WSW 6.9 mph - 0.00 in   Overcast
6:55 AM 42.1 °F 39.2 °F 37.0 °F 82% 30.24 in 10.0 mi SW 4.6 mph - 0.00 in   Mostly Cloudy
7:11 AM 42.8 °F 39.3 °F 37.4 °F 81% 30.24 in 10.0 mi SW 5.8 mph - N/A   Mostly Cloudy
7:45 AM 42.8 °F 40.1 °F 37.4 °F 81% 30.23 in 10.0 mi WSW 4.6 mph - N/A   Overcast
7:55 AM 43.0 °F 40.3 °F 39.0 °F 86% 30.24 in 10.0 mi SW 4.6 mph - N/A   Overcast
8:52 AM 44.6 °F 40.7 °F 39.2 °F 81% 30.24 in 10.0 mi West 6.9 mph - N/A   Overcast
8:55 AM 45.0 °F 40.1 °F 39.0 °F 80% 30.24 in 10.0 mi West 9.2 mph - N/A   Overcast
9:19 AM 46.4 °F 41.9 °F 39.2 °F 76% 30.24 in 10.0 mi WSW 9.2 mph - N/A   Mostly Cloudy
9:55 AM 46.9 °F - 39.9 °F 77% 30.25 in 10.0 mi West 6.9 mph - 0.00 in   Scattered Clouds
10:55 AM 48.9 °F - 39.0 °F 69% 30.26 in 10.0 mi West 9.2 mph - 0.00 in   Mostly Cloudy
11:50 AM 48.2 °F - 39.2 °F 71% 30.26 in 10.0 mi West 11.5 mph - N/A   Mostly Cloudy
11:55 AM 48.9 °F - 39.0 °F 69% 30.26 in 10.0 mi West 9.2 mph - N/A   Mostly Cloudy
12:24 PM 50.0 °F - 39.2 °F 66% 30.26 in 10.0 mi WNW 10.4 mph 16.1 mph N/A   Mostly Cloudy
12:55 PM 46.9 °F - 39.0 °F 74% 30.27 in 10.0 mi West 6.9 mph - N/A   Overcast
1:55 PM 48.0 °F - 39.9 °F 74% 30.27 in 10.0 mi SW 6.9 mph - N/A   Mostly Cloudy
2:55 PM 48.9 °F - 39.0 °F 69% 30.26 in 10.0 mi WNW 12.7 mph - 0.00 in   Overcast
3:41 PM 46.4 °F 42.4 °F 39.2 °F 76% 30.26 in 10.0 mi WNW 8.1 mph - 0.00 in Rain Light Rain
3:55 PM 48.0 °F - 39.0 °F 71% 30.26 in 10.0 mi WNW 8.1 mph - 0.00 in   Overcast
4:55 PM 48.9 °F - 36.0 °F 61% 30.26 in 10.0 mi WNW 8.1 mph - N/A   Clear
5:55 PM 48.0 °F - 36.0 °F 63% 30.24 in 10.0 mi NW 8.1 mph - N/A   Clear
6:55 PM 46.0 °F 43.1 °F 37.0 °F 71% 30.23 in 10.0 mi NW 5.8 mph - N/A   Clear
7:55 PM 44.1 °F - 36.0 °F 73% 30.22 in 10.0 mi Calm Calm - N/A   Clear
8:55 PM 39.0 °F - 34.0 °F 82% 30.22 in 10.0 mi Calm Calm - N/A   Clear
9:55 PM 37.9 °F 34.4 °F 35.1 °F 89% 30.21 in 10.0 mi SE 4.6 mph - N/A   Clear
10:55 PM 37.0 °F 34.5 °F 34.0 °F 89% 30.19 in 10.0 mi ESE 3.5 mph - N/A   Clear
11:55 PM 36.0 °F - 34.0 °F 93% 30.17 in 10.0 mi Calm Calm - N/A   Clear